Location: Campillo
(40.8621°N, 4.2488°W)
Time: 15:48:50
(UTC+00:00)

Cosmos 1777 Rocket - Pass Details

Date: 26 September 2021
Orbit: 759 x 775 km, 74.0° (Epoch: 23 October)

Event Time Altitude Azimuth Distance (km) Brightness Sun altitude
Rises 04:40:16 0° 348° (NNW) 3,227 7.3 -17.4°
Reaches altitude 10° 04:42:50 10° 356° (N) 2,297 6.6 -16.9°
Maximum altitude 04:47:39 37° 64° (ENE) 1,167 5.6 -16.0°
Drops below altitude 10° 04:52:26 10° 132° (SE) 2,285 7.0 -15.1°
Sets 04:54:57 0° 140° (SE) 3,208 7.6 -14.7°
